ROMMA est une association bénévole à but non lucratif. Votre soutien est indispensable : ADHERER à ROMMA ou FAIRE un DON

Chambon - (38, Isère)

Oisans (2460 m)   Longitude: 06° 10' 42" E   Latitude: 45° 01' 32" N Station partenaire n°803
 

Détail journalier du     <<     >>

Température Humidité Vent Dir Rafale Dir. rafale Neige 1 Neige 2
Heure (°C) (%) (km/h) (km/h) (cm) (cm)
01:00 9.4844OSO10OSO00
02:00 9.3826SO10OSO00
03:00 9.0833SSO8OSO01
04:00 8.8825SO8SO01
05:00 8.8814S8SSO01
06:00 8.2831S5S02
07:00 8.2812SO4SO02
08:00 8.6783SO4SO02
09:00 11.4692NE7NE00
10:00 12.4642NE10NE01
11:00 12.9643NE10NE00
12:00 13.5622NE10NE00
13:00 13.5373NE15ONO01
14:00 13.5427O23O01
15:00 13.65812O23O01
16:00 13.95313O28O01
17:00 14.44517O28O01
18:00 13.74519OSO32OSO01
19:00 12.94920OSO32OSO01
20:00 12.34516OSO28OSO01
21:00 10.84912SO19SO00
22:00 10.1519SO15OSO00
23:00 9.75311SO19OSO00
minuit 9.35213SSO19SO00

Graphique du 24-08-2019

 

Serveur OMMA